Weather Service Report


892 
ASUS43 KDMX 220307
RWRIA 

WEATHER ROUNDUP FOR IOWA
NATIONAL WEATHER SERVICE DES MOINES IA
900 PM CST SUN DEC 21 2014

NOTE: "FAIR" INDICATES FEW OR NO CLOUDS BELOW 12,000 FEET WITH NO
SIGNIFICANT WEATHER AND/OR OBSTRUCTIONS TO VISIBILITY.

* - THESE STATIONS ARE NOT NWS STATIONS...THUS NOT UNDER NWS
QUALITY CONTROL.  THEY ALSO DO NOT REPORT WEATHER SUCH 
AS PRECIPITATION OR FOG.  

IAZ001>003-012>014-020>022-031>034-043>046-220400-
   NORTHWEST IOWA
  
CITY           SKY/WX    TMP DP  RH WIND       PRES   REMARKS
CARROLL *      CLOUDY    39  39 100 S15       29.70F FOG     WCI  31  
CHEROKEE *     CLOUDY    39  39 100 S10       29.66S FOG     WCI  32  
DENISON *      CLOUDY    41  41 100 S16G22    29.65F FOG              
LE MARS *      CLOUDY    41  39  93 S18G25    29.61F FOG              
ORANGE CITY *  CLOUDY    39  37  93 S12G17    29.61F FOG     WCI  32  
SHELDON *      CLOUDY    37  37 100 S18       29.60F FOG     WCI  27  
SIOUX CITY     CLOUDY    41  39  93 SE9       29.62F                  
SPENCER        CLOUDY    38  37  97 S17       29.65F FOG     WCI  28  
STORM LAKE *   CLOUDY    39  39 100 S17       29.66F FOG     WCI  30  
$$
 
IAZ055>058-069>071-079>083-090>094-220400-
   SOUTHWEST IOWA
  
CITY           SKY/WX    TMP DP  RH WIND       PRES   REMARKS
ATLANTIC *     CLOUDY    41  41 100 S12G20    29.70F FOG              
AUDUBON *      DRIZZLE   39  36  87 S12       29.71F WCI  32          
CLARINDA *     CLOUDY    43  41  93 S12G18    29.74F FOG              
COUNCIL BLFS * CLOUDY    41  41 100 S17       29.66F FOG              
CRESTON *      CLOUDY    41  41 100 S17G23    29.74F                  
HARLAN  *      CLOUDY    41  41 100 S14G21    29.72F FOG              
LAMONI         CLOUDY    41  40  96 SE15G22   29.77F                  
RED OAK *      CLOUDY    41  41 100 S13G21    29.71F FOG              
SHENANDOAH *   CLOUDY    43  43 100 S15       29.71F                  
$$
 
IAZ047>049-059>061-072>074-084-220400-
   CENTRAL IOWA
  
CITY           SKY/WX    TMP DP  RH WIND       PRES   REMARKS
AMES           CLOUDY    41  37  86 S14       29.76F                  
ANKENY *       CLOUDY    43  39  87 S13       29.77F                  
CHARITON *     CLOUDY    41  39  93 S16       29.79F                  
DES MOINES     CLOUDY    43  38  82 S13       29.78F                  
GRINNELL*      CLOUDY    39  37  93 SE16G23   29.81F WCI  30          
KNOXVILLE *    CLOUDY    43  39  87 SE16G22   29.78F                  
MARSHALLTOWN   CLOUDY    40  38  93 SE15      29.79F WCI  32          
PELLA *        CLOUDY    41  39  93 SE15G21   29.82F                  
PERRY *        CLOUDY    41  39  93 S13       29.74F                  
$$
 
IAZ004>006-015-016-023>025-035-036-220400-
   NORTH CENTRAL IOWA
  
CITY           SKY/WX    TMP DP  RH WIND       PRES   REMARKS
ALGONA *       CLOUDY    37  30  75 S21G26    29.69F HAZE    WCI  27  
CLARION *      CLOUDY    39  39 100 S16       29.73F WCI  30          
ESTHERVILLE    CLOUDY    37  37 100 S15       29.67S FOG     WCI  28  
FORT DODGE *   CLOUDY    39  36  87 S13G18    29.73S WCI  32          
MASON CITY     CLOUDY    37  36  96 SE14      29.76F FOG     WCI  28  
FOREST CITY *  CLOUDY    37  36  93 SE16      29.73F FOG     WCI  28  
IOWA FALLS *   CLOUDY    39  37  93 SE15      29.77F WCI  31          
$$

IAZ007>011-017>019-026>030-037>042-050>054-066-220400-
   NORTHEAST IOWA
  
CITY           SKY/WX    TMP DP  RH WIND       PRES   REMARKS
CEDAR RAPIDS   CLOUDY    37  35  92 SE18G26   29.86F WCI  27          
CHARLES CITY * CLOUDY    37  37 100 S16G23    29.79F FOG     WCI  28  
CLINTON *      CLOUDY    36  30  80 SE14      29.98S WCI  27          
DECORAH *      CLOUDY    36  36 100 S13G23    29.82S FOG     WCI  27  
DUBUQUE        CLOUDY    34  31  88 S17G24    29.91S FOG     WCI  23  
MONTICELLO *   CLOUDY    36  36 100 SE15      29.90S WCI  26          
OELWEIN *      CLOUDY    37  36  93 SE17      29.83F FOG     WCI  28  
WATERLOO       CLOUDY    38  37  97 S15       29.81F WCI  29          
$$
 
IAZ064-065-067-068-078-220400-
   EAST CENTRAL IOWA
  
CITY           SKY/WX    TMP DP  RH WIND       PRES   REMARKS
DAVENPORT      CLOUDY    36  30  79 SE15      29.94F WCI  27          
IOWA CITY      CLOUDY    37  34  89 SE13      29.90F WCI  29          
MT. PLEASANT * CLOUDY    39  34  81 SE16G22   29.90F WCI  30          
MUSCATINE *    CLOUDY    39  34  81 SE12G21   29.92F WCI  32          
QUAD CITIES    MIX PCPN  36  31  82 SE13      29.95S WCI  27          
$$
 
IAZ062-063-075>077-085>089-095>099-220400-
   SOUTHEAST IOWA
  
CITY           SKY/WX    TMP DP  RH WIND       PRES   REMARKS
BURLINGTON     CLOUDY    39  33  79 SE10      29.92F WCI  32          
FAIRFIELD *    CLOUDY    39  36  87 SE13      29.87F WCI  32          
FORT MADISON * CLOUDY    41  36  81 SE9       29.92F                  
KEOKUK *       CLOUDY    41  36  81 SE8       29.90F                  
OSKALOOSA *    CLOUDY    39  37  93 S13       29.85S WCI  32          
CENTERVILLE *  CLOUDY    39  39 100 SE10      29.84S WCI  32          
OTTUMWA        CLOUDY    40  38  93 S14       29.84F WCI  32          
WASHINGTON *   CLOUDY    39  39 100 SE15G23   29.88F WCI  31          
$$

ABBREVIATIONS USED IN REMARKS
   TC - TEMPERATURES IN CELSIUS
  WCI - WIND CHILL INDEX
   HX - HEAT INDEX
  VSB - VISIBILITY  
$$


Return to Home page


Western Regional Climate Center, wrcc@dri.edu